CZ-2D R/B, 43486

Orbit data source: Space-Track

CZ-2D R/B, 43486 is space debris in SSO originally from a launch on Sat, 02 Jun 2018 UTC launched from the Jiuquan Satellite Launch Center, China (JSC). Debris objects in space refer to the collection of defunct objects orbiting the Earth. Examples of debris include non-operational satellites, rocket bodies, and fragments generated from explosions, collisions, or faulty payload assembly.

Loading next visibility...
Identifier
43486, 2018-048C
Orbit
SSO
Country
Flag of CNCN / PRC
Related business
Manufacturer
CALT
Mission
Spacecraft
Bus & Motor
Unknown
Mass
1 kg wet, 1 kg dry
Launch date (UTC)
2018-06-02 (8 years ago)
Launch vehicle
Unknown
Launch site
Jiuquan Satellite Launch Center, China (JSC)
Object type
Payload
Rocket body
Debris
Shape & HBR
Cone, 0.1 m
Radar Cross Section
0.025 m², Small (<0.1 m²)

Expand to show TLE details & history
Last TLE update: 19 hours ago

TLE from 19 hours ago
0 CZ-2D R/B
1 43486U 18048C   26125.31851508  .00004399  00000-0  40449-3 0  9992
2 43486  97.5783 156.4458 0009553 309.3075  50.7299 14.95241877428754
Epoch: 2026-05-05T07:38Z
TLE epoch observation values (Epoch: 2026-05-05T07:38:39.702Z)
Latitude
Longitude
178.5853°
Altitude
580.468 km
Speed
7.573 km/s
True Right ascension
10h 25m 46s
True Declination
0° 00' 00"
Sunlit
Object was in daylight at epoch
Visualization orbit readout
Latitude
Unknown
Longitude
Unknown
Altitude
Unknown
Speed
Unknown
Apparent Right ascension
Unknown
Apparent Declination
Unknown
Sunlit
N/A
Visualization observer readout
Local Sidereal Time
11:03:53
Azimuth
Unknown
Elevation
Unknown
Doppler factor
Unknown
Orbital elements
Apogee altitude
585.274 km
Perigee altitude
571.983 km
Semi-major axis
6,956.765 km
Eccentricity
0.00096
Inclination
97.5783°
RAAN
156.4458°
Arg. of periapsis
309.3075°
True anomaly
50.81471°
Mean anomaly
50.7299°
Eccentric anomaly
50.7723°
Mean motion
3.74052 °/min
Orbital period
96.24 mins
BSTAR
0.00040449
Loading maneuver chart data...
Computing Atmospheric mass density...
Loading historical data...
Loading historical data...
Loading historical data...
Loading historical data...
Loading historical data...
Loading historical data...
Loading historical data...
Other satellites on launch #48 in the year 2018 (2018-06-02 UTC)

Documentation

Showing up to 5 results
|